When you browse on this site, cookies collect data to enhance your experience and personalize the content and advertising you see.
Visit our Privacy Policy to learn more. By continuing to use the site, you agree to this use of cookies and data.
  • In Hungary
  • List of Countries
  • For 7 days
  • Water Temperature
  • Satellite Maps
  • Weather Map
  • News
  • Weather Widgets
  • user-avatar
    Login

    Hourly Weather Medan

    Today, 23 July, Tuesday

    Time Temperature Precipitation Wind Pressure Humidity
    00:00 +26°C° 0.2 mm 1 mps 755 mmHg 89%
    01:00 +26°C° 0 mm 1 mps 755 mmHg 91%
    02:00 +26°C° 0.3 mm 1 mps 754 mmHg 91%
    03:00 +25°C° 0.3 mm 1 mps 754 mmHg 92%
    04:00 +25°C° 0.3 mm 1 mps 753 mmHg 93%
    05:00 +25°C° 0.3 mm 1 mps 754 mmHg 92%
    06:00 +25°C° 0.3 mm 1 mps 754 mmHg 92%
    07:00 +26°C° 0 mm 1 mps 755 mmHg 89%
    08:00 +27°C° 0 mm 1 mps 755 mmHg 83%
    09:00 +29°C° 0 mm 1 mps 755 mmHg 78%
    10:00 +30°C° 0 mm 1 mps 755 mmHg 73%
    11:00 +31°C° 0.2 mm 1 mps 755 mmHg 68%
    12:00 +33°C° 0.2 mm 1 mps 755 mmHg 64%
    13:00 +34°C° 0 mm 1 mps 755 mmHg 63%
    14:00 +34°C° 0.1 mm 1 mps 754 mmHg 60%
    15:00 +35°C° 0.1 mm 1 mps 753 mmHg 57%
    16:00 +35°C° 0.1 mm 1 mps 752 mmHg 54%
    17:00 +32°C° 0.1 mm 1 mps 753 mmHg 66%
    18:00 +30°C° 0.1 mm 1 mps 753 mmHg 77%
    19:00 +28°C° 0.1 mm 1 mps 753 mmHg 89%
    20:00 +27°C° 0.4 mm 1 mps 754 mmHg 91%
    21:00 +27°C° 0.4 mm 1 mps 755 mmHg 92%
    22:00 +27°C° 0.4 mm 1 mps 755 mmHg 94%
    23:00 +26°C° 2.4 mm 1 mps 755 mmHg 94%

    Tomorrow, 24 July, Wednesday

    Time Temperature Precipitation Wind Pressure Humidity
    00:00 +26°C° 2.4 mm 1 mps 755 mmHg 95%
    01:00 +26°C° 2.4 mm 1 mps 755 mmHg 96%
    02:00 +25°C° 2.2 mm 1 mps 755 mmHg 97%
    03:00 +25°C° 2.2 mm 1 mps 755 mmHg 97%
    04:00 +25°C° 2.2 mm 1 mps 754 mmHg 97%
    05:00 +25°C° 0.7 mm 1 mps 755 mmHg 97%
    06:00 +25°C° 0.7 mm 1 mps 755 mmHg 97%
    07:00 +25°C° 0.7 mm 1 mps 756 mmHg 97%
    08:00 +25°C° 0.4 mm 1 mps 756 mmHg 97%
    09:00 +26°C° 0.4 mm 1 mps 756 mmHg 96%
    10:00 +26°C° 0.4 mm 1 mps 757 mmHg 96%
    11:00 +27°C° 0 mm 1 mps 756 mmHg 92%
    12:00 +27°C° 0 mm 1 mps 756 mmHg 88%
    13:00 +28°C° 0 mm 1 mps 756 mmHg 84%
    14:00 +28°C° 0 mm 1 mps 755 mmHg 85%
    15:00 +28°C° 0 mm 1 mps 754 mmHg 85%
    16:00 +26°C° 0 mm 0 mps 754 mmHg 86%
    17:00 +28°C° 0 mm 1 mps 754 mmHg 86%
    18:00 +27°C° 0 mm 1 mps 754 mmHg 87%
    19:00 +27°C° 0 mm 1 mps 754 mmHg 88%
    20:00 +26°C° 0 mm 1 mps 755 mmHg 88%
    21:00 +26°C° 0 mm 1 mps 756 mmHg 88%
    22:00 +26°C° 0 mm 1 mps 756 mmHg 88%
    23:00 +26°C° 0 mm 1 mps 756 mmHg 88%

    Day after tomorrow, 25 July, Thursday

    Time Temperature Precipitation Wind Pressure Humidity
    00:00 +26°C° 0 mm 1 mps 756 mmHg 88%
    01:00 +26°C° 0 mm 1 mps 756 mmHg 87%
    02:00 +25°C° 0.1 mm 1 mps 756 mmHg 89%
    03:00 +25°C° 0.1 mm 1 mps 756 mmHg 90%
    04:00 +25°C° 0.1 mm 1 mps 755 mmHg 91%
    05:00 +25°C° 0 mm 1 mps 756 mmHg 91%
    06:00 +25°C° 0 mm 1 mps 756 mmHg 90%
    07:00 +25°C° 0 mm 1 mps 756 mmHg 90%
    08:00 +27°C° 0 mm 1 mps 757 mmHg 82%
    09:00 +29°C° 0 mm 1 mps 757 mmHg 75%
    10:00 +28°C° 0 mm 0 mps 757 mmHg 67%
    11:00 +31°C° 0 mm 1 mps 757 mmHg 64%
    12:00 +32°C° 0 mm 1 mps 756 mmHg 60%
    13:00 +33°C° 0 mm 1 mps 755 mmHg 57%
    14:00 +34°C° 0 mm 2 mps 755 mmHg 59%
    15:00 +34°C° 0 mm 2 mps 754 mmHg 61%
    16:00 +32°C° 0 mm 2 mps 754 mmHg 64%
    17:00 +30°C° 0.3 mm 1 mps 754 mmHg 73%
    18:00 +29°C° 0.3 mm 1 mps 755 mmHg 82%
    19:00 +25°C° 0.3 mm 0 mps 755 mmHg 91%
    20:00 +25°C° 0.2 mm 0 mps 756 mmHg 91%
    21:00 +24°C° 0.2 mm 0 mps 756 mmHg 92%
    22:00 +24°C° 0.2 mm 0 mps 757 mmHg 92%
    23:00 +24°C° 0 mm 0 mps 757 mmHg 92%

    26 July, Friday

    Time Temperature Precipitation Wind Pressure Humidity
    00:00 +26°C° 0 mm 1 mps 756 mmHg 93%
    01:00 +26°C° 0 mm 1 mps 756 mmHg 93%
    02:00 +25°C° 0 mm 1 mps 756 mmHg 93%
    03:00 +25°C° 0 mm 1 mps 755 mmHg 93%
    04:00 +25°C° 0 mm 1 mps 755 mmHg 93%
    05:00 +25°C° 0 mm 1 mps 755 mmHg 92%
    06:00 +25°C° 0 mm 1 mps 755 mmHg 90%
    07:00 +25°C° 0 mm 1 mps 755 mmHg 89%
    08:00 +28°C° 0 mm 1 mps 756 mmHg 79%
    09:00 +30°C° 0 mm 1 mps 756 mmHg 70%
    10:00 +32°C° 0 mm 1 mps 756 mmHg 60%
    11:00 +33°C° 0 mm 1 mps 756 mmHg 58%
    12:00 +35°C° 0 mm 2 mps 755 mmHg 55%
    13:00 +36°C° 0 mm 2 mps 755 mmHg 53%
    14:00 +35°C° 0.6 mm 2 mps 754 mmHg 60%
    15:00 +34°C° 0.6 mm 2 mps 753 mmHg 68%
    16:00 +32°C° 0.6 mm 2 mps 753 mmHg 75%
    17:00 +30°C° 1.3 mm 2 mps 753 mmHg 81%
    18:00 +28°C° 1.3 mm 2 mps 754 mmHg 88%
    19:00 +27°C° 1.3 mm 1 mps 754 mmHg 94%
    20:00 +27°C° 0.7 mm 1 mps 755 mmHg 94%
    21:00 +26°C° 0.7 mm 1 mps 755 mmHg 95%
    22:00 +26°C° 0.7 mm 1 mps 756 mmHg 95%
    23:00 +26°C° 0.5 mm 1 mps 756 mmHg 95%

    27 July, Saturday

    Time Temperature Precipitation Wind Pressure Humidity
    00:00 +25°C° 0.5 mm 1 mps 756 mmHg 96%
    01:00 +25°C° 0.5 mm 1 mps 755 mmHg 96%
    02:00 +25°C° 0.3 mm 1 mps 755 mmHg 96%
    03:00 +25°C° 0.3 mm 1 mps 755 mmHg 96%
    04:00 +25°C° 0.3 mm 1 mps 754 mmHg 95%
    05:00 +25°C° 0.1 mm 1 mps 755 mmHg 95%
    06:00 +25°C° 0.1 mm 1 mps 755 mmHg 94%
    07:00 +25°C° 0.1 mm 1 mps 755 mmHg 93%
    08:00 +25°C° 0 mm 0 mps 756 mmHg 85%
    09:00 +27°C° 0 mm 0 mps 756 mmHg 77%
    10:00 +29°C° 0 mm 0 mps 756 mmHg 68%
    11:00 +32°C° 0.1 mm 1 mps 755 mmHg 64%
    12:00 +33°C° 0.1 mm 1 mps 755 mmHg 59%
    13:00 +35°C° 0.1 mm 2 mps 754 mmHg 55%
    14:00 +34°C° 0.7 mm 2 mps 754 mmHg 61%
    15:00 +34°C° 0.7 mm 2 mps 753 mmHg 67%
    16:00 +32°C° 0.7 mm 2 mps 753 mmHg 73%
    17:00 +30°C° 0.5 mm 1 mps 754 mmHg 77%
    18:00 +29°C° 0.5 mm 1 mps 754 mmHg 82%
    19:00 +25°C° 0.5 mm 0 mps 755 mmHg 86%
    20:00 +25°C° 0.5 mm 0 mps 755 mmHg 88%
    21:00 +27°C° 0.5 mm 1 mps 756 mmHg 90%
    22:00 +26°C° 0.5 mm 1 mps 756 mmHg 92%
    23:00 +26°C° 0.1 mm 1 mps 756 mmHg 92%

    28 July, Sunday

    Time Temperature Precipitation Wind Pressure Humidity
    00:00 +26°C° 0.1 mm 1 mps 756 mmHg 93%
    01:00 +26°C° 0.1 mm 1 mps 756 mmHg 94%
    02:00 +25°C° 0.1 mm 1 mps 755 mmHg 93%
    03:00 +25°C° 0.1 mm 1 mps 755 mmHg 93%
    04:00 +25°C° 0.1 mm 1 mps 755 mmHg 93%
    05:00 +25°C° 0 mm 1 mps 755 mmHg 92%
    06:00 +25°C° 0 mm 1 mps 755 mmHg 91%
    07:00 +25°C° 0 mm 1 mps 756 mmHg 90%
    08:00 +28°C° 0 mm 1 mps 756 mmHg 79%
    09:00 +29°C° 0 mm 0 mps 756 mmHg 68%
    10:00 +31°C° 0 mm 0 mps 756 mmHg 58%
    11:00 +34°C° 0 mm 1 mps 756 mmHg 55%
    12:00 +35°C° 0 mm 1 mps 755 mmHg 52%
    13:00 +36°C° 0 mm 2 mps 754 mmHg 49%
    14:00 +35°C° 0.8 mm 2 mps 754 mmHg 58%
    15:00 +34°C° 0.8 mm 2 mps 754 mmHg 68%
    16:00 +31°C° 0.8 mm 3 mps 753 mmHg 77%
    17:00 +30°C° 1.2 mm 2 mps 754 mmHg 81%
    18:00 +29°C° 1.2 mm 2 mps 754 mmHg 86%
    19:00 +27°C° 1.2 mm 1 mps 754 mmHg 90%
    20:00 +27°C° 0.4 mm 1 mps 755 mmHg 91%
    21:00 +27°C° 0.4 mm 1 mps 756 mmHg 93%
    22:00 +26°C° 0.4 mm 1 mps 756 mmHg 94%
    23:00 +26°C° 0.2 mm 1 mps 756 mmHg 94%
    Show more